Weather History for Fitchburg, MA

Change the Weather History Date:

Saturday, February 16, 2013

  Actual Average (KORH) Record (KORH)
Temperature  
Mean Temperature 32 °F 27 °F  
Max Temperature 37 °F 35 °F 62 °F (1954)
Min Temperature 27 °F 20 °F -24 °F (1943)
Degree Days  
Heating Degree Days 32 38  
Month to date heating degree days 626  
Since 1 July heating degree days 4399  
Cooling Degree Days 0 0  
Month to date cooling degree days 0  
Year to date cooling degree days 0  
Moisture  
Dew Point 27 °F    
Average Humidity 79    
Maximum Humidity 96    
Minimum Humidity 52    
Precipitation  
Precipitation 0.03 in 0.12 in 1.25 in (1964)
Month to date precipitation 1.81  
Year to date precipitation 5.30  
Sea Level Pressure  
Sea Level Pressure 29.91 in    
Wind  
Wind Speed 4 mph (NNW)    
Max Wind Speed 15 mph    
Max Gust Speed 20 mph    
Visibility 6 miles    
Events Snow    
T = Trace of Precipitation, MM = Missing Value Source: NWS Daily Summary

Daily Weather History Graph

Daily Weather History Graph

Search for Another Location

Airport:

Trip Planner

Search our weather history database for the weather conditions in past years. The results will help you decide how hot, cold, wet, or windy it might be!

Date:

Astronomy

Feb. 16, 2013 Rise Set
Actual Time 6:42 AM EST 5:20 PM EST
Civil Twilight 6:13 AM EST 5:49 PM EST
Nautical Twilight 5:40 AM EST 6:22 PM EST
Astronomical Twilight 5:07 AM EST 6:55 PM EST
Moon 9:43 AM EST (2/16) No Moon Set
Length of Visible Light 11h 36m
Length of Day
10h 38m
Waxing Crescent, 39% of the Moon is Illuminated
Feb 16
Waxing Crescent
Feb 17
First Quarter
Feb 25
Full
Mar 4
Last Quarter
Mar 11
New

Hourly Weather History & Observations

Time (EST) Temp. Windchill Dew Point Humidity Pressure Visibility Wind Dir Wind Speed Gust Speed Precip Events Conditions
12:52 AM 33.1 °F 28.7 °F 28.0 °F 82% 29.95 in 10.0 mi NW 4.6 mph - N/A   Overcast
1:52 AM 34.0 °F 31.0 °F 28.0 °F 79% 29.96 in 7.0 mi West 3.5 mph - 0.00 in Snow Light Snow
2:52 AM 35.1 °F 26.9 °F 28.9 °F 78% 29.96 in 7.0 mi NW 11.5 mph - 0.00 in Snow Light Snow
3:14 AM 33.8 °F 26.4 °F 30.2 °F 87% 29.95 in 2.5 mi NW 9.2 mph - 0.00 in Snow Light Snow
3:28 AM 33.8 °F 28.6 °F 30.2 °F 87% 29.95 in 1.2 mi NNW 5.8 mph - 0.01 in Snow Light Snow
3:34 AM 33.8 °F 29.6 °F 30.2 °F 87% 29.95 in 0.8 mi NW 4.6 mph - 0.02 in Snow Light Snow
3:41 AM 33.8 °F - 32.0 °F 93% 29.95 in 0.8 mi Calm Calm - 0.02 in Snow Light Snow
3:59 AM 33.8 °F - 32.0 °F 93% 29.95 in 1.0 mi Calm Calm - 0.00 in Snow Light Snow
4:12 AM 33.8 °F - 32.0 °F 93% 29.95 in 1.0 mi Calm Calm - 0.01 in Snow Light Snow
4:25 AM 33.8 °F - 32.0 °F 93% 29.95 in 1.2 mi Calm Calm - 0.02 in Snow Light Snow
4:34 AM 33.8 °F - 30.2 °F 87% 29.94 in 1.5 mi Calm Calm - 0.02 in Snow Light Snow
4:45 AM 33.8 °F - 30.2 °F 87% 29.94 in 1.8 mi Calm Calm - 0.02 in Snow Light Snow
4:52 AM 32.0 °F 28.7 °F 30.9 °F 96% 29.95 in 1.8 mi WNW 3.5 mph - 0.02 in Snow Light Snow
5:11 AM 32.0 °F - 30.2 °F 93% 29.95 in 1.5 mi Calm Calm - 0.01 in Snow Light Snow
5:35 AM 32.0 °F - 30.2 °F 93% 29.94 in 1.8 mi Calm Calm - 0.01 in Snow Light Snow
5:43 AM 32.0 °F - 30.2 °F 93% 29.94 in 2.5 mi Calm Calm - 0.01 in Snow Light Snow
5:52 AM 32.0 °F - 30.9 °F 96% 29.94 in 2.5 mi Calm Calm - 0.01 in Snow Light Snow
6:07 AM 32.0 °F - 30.2 °F 93% 29.94 in 3.0 mi Calm Calm - 0.00 in Snow Light Snow
6:25 AM 32.0 °F - 30.2 °F 93% 29.93 in 2.5 mi Calm Calm - 0.00 in Snow Light Snow
6:37 AM 32.0 °F - 30.2 °F 93% 29.93 in 2.0 mi Calm Calm - 0.00 in Snow Light Snow
6:47 AM 32.0 °F - 30.2 °F 93% 29.93 in 1.5 mi Calm Calm - 0.00 in Snow Light Snow
6:52 AM 32.0 °F - 30.9 °F 96% 29.95 in 1.5 mi Calm Calm - 0.00 in Snow Light Snow
7:05 AM 32.0 °F - 30.2 °F 93% 29.94 in 2.0 mi Calm Calm - 0.00 in Snow Light Snow
7:16 AM 32.0 °F - 30.2 °F 93% 29.94 in 4.0 mi Calm Calm - 0.00 in   Overcast
7:52 AM 32.0 °F - 30.0 °F 92% 29.96 in 6.0 mi Calm Calm - 0.00 in   Overcast
8:52 AM 33.1 °F - 30.9 °F 92% 29.95 in 4.0 mi Calm Calm - 0.00 in   Overcast
9:52 AM 35.1 °F 29.3 °F 28.0 °F 76% 29.94 in 10.0 mi North 6.9 mph - 0.00 in   Overcast
10:52 AM 36.0 °F 33.3 °F 27.0 °F 70% 29.94 in 10.0 mi North 3.5 mph - N/A   Overcast
11:52 AM 37.0 °F 34.5 °F 27.0 °F 67% 29.90 in 10.0 mi ENE 3.5 mph - N/A   Mostly Cloudy
12:33 PM 37.4 °F 33.8 °F 26.6 °F 65% 29.88 in 10.0 mi NNE 4.6 mph - N/A   Overcast
12:52 PM 37.0 °F 34.5 °F 25.0 °F 62% 29.88 in 10.0 mi NNW 3.5 mph - N/A   Overcast
1:52 PM 37.9 °F 35.5 °F 25.0 °F 60% 29.87 in 10.0 mi ENE 3.5 mph - N/A   Overcast
2:52 PM 37.9 °F - 24.1 °F 57% 29.86 in 10.0 mi Calm Calm - N/A   Overcast
3:52 PM 37.9 °F - 25.0 °F 60% 29.84 in 10.0 mi Calm Calm - N/A   Overcast
4:52 PM 37.9 °F - 25.0 °F 60% 29.83 in 10.0 mi Calm Calm - N/A   Overcast
5:52 PM 36.0 °F 29.6 °F 21.0 °F 55% 29.85 in 10.0 mi North 8.1 mph - N/A   Overcast
6:52 PM 34.0 °F 26.6 °F 18.0 °F 52% 29.85 in 10.0 mi North 9.2 mph - N/A   Overcast
7:52 PM 33.1 °F 27.7 °F 18.0 °F 54% 29.84 in 10.0 mi North 5.8 mph - N/A   Overcast
8:52 PM 32.0 °F 24.2 °F 16.0 °F 52% 29.83 in 10.0 mi NNW 9.2 mph - N/A   Overcast
9:52 PM 30.9 °F 21.2 °F 15.1 °F 52% 29.81 in 10.0 mi NNW 12.7 mph - N/A   Overcast
10:52 PM 28.9 °F 17.7 °F 16.0 °F 58% 29.77 in 10.0 mi NNW 15.0 mph 19.6 mph N/A   Overcast
11:52 PM 27.0 °F 16.1 °F 16.0 °F 63% 29.75 in 10.0 mi NNW 12.7 mph - 0.00 in Snow Light Snow